101P/Chernykh (2020)

Japanese version
Home page
Updated on April 27, 2021

---------------------------------------------------------------------

* Profile

* Pictures

* Orbital Elements

Epoch 2020 Feb. 1.0 TT = JDT 2458880.5
T 2020 Jan. 12.51940 TT                                 Rudenko
q   2.3449775            (2000.0)            P               Q
n   0.07061271     Peri.  277.69567     +0.82630394     -0.55765598
a   5.7971448      Node   116.23040     +0.54522402     +0.75680806
e   0.5954944      Incl.    5.05278     +0.14125356     +0.34097121
P  14.0
From 1444 observations 2005 July 10-2021 Mar. 4, mean residual 1".7.
     Nongravitational parameters A1 = +6.89, A2 = -0.6585.

* Finding Charts

* Magnitudes Graph

        m1 = -4.5 + 5 log d + 50   log r           [ ,0]  (             - 2020 Jan. 12)
        m1 =  9.6 + 5 log d + 11.0 log r(t - 100)  [0, ]  (2020 Jan. 12 -             )

---------------------------------------------------------------------

The orbital elements are published on M.P.E.C. 2021-F20.
The charts are made with StellaNavigator Ver.10 (AstroArts).
The magnitudes graphs are made with Comet for Windows.

---------------------------------------------------------------------

Copyright(C) Seiichi Yoshida (comet@aerith.net). All rights reserved.